User: anonymous   Login
Location: Chanteloup
(48.8560°N, 2.7390°E)
Time: 12:38:02
(UTC+00:00)
Language:

Cosmos 1408 - Orbit

View from above orbital plane
View from above orbital plane
View from above satellite
View from above satellite

Ground track
Ground track

The orbit data is extracted from the following two-line orbital elements,

1 13552U 82092A   22025.92050582  .00003401  00000-0  10963-3 0  9999
2 13552  82.5719  51.7170 0025674 252.0870 107.7572 15.31483167 10918
Epoch (UTC): 25 January 2022 22:05:31
Eccentricity: 0.0025674
inclination: 82.5719°
perigee height: 454 km
apogee height: 489 km
right ascension of ascending node: 51.7170°
argument of perigee: 252.0870°
revolutions per day: 15.31483167
mean anomaly at epoch: 107.7572°
orbit number at epoch: 1091

The dashed part of the orbit path shows where the satellite is in the earth's shadow,  

DLR